EW4885 Weather Reports


time (UTC)temp
F
wind
direction
speed
knots
gust
knots
rain 1hr
in
rain 24hr
in
rain mn
in
humidity
%
barometer
mb
20260503000012 60 140 5.2 10.4 0.00 0.00 0.00 52 1016.2
20260502234510 60 159 4.3 9.6 0.00 0.00 0.00 52 1016.4
20260502233013 60 134 4.3 10.4 0.00 0.00 0.00 51 1016.5
20260502231505 61 118 5.2 11.3 0.00 0.00 0.00 50 1016.5
20260502230002 61 144 4.3 9.6 0.00 0.00 0.00 49 1016.6
20260502224606 62 153 6.1 12.2 0.00 0.00 0.00 49 1016.6
20260502223058 62 159 7.0 13.0 0.00 0.00 0.00 48 1016.7
20260502221556 62 168 5.2 15.6 0.00 0.00 0.00 48 1016.7
20260502220054 63 191 6.1 14.8 0.00 0.00 0.00 47 1016.8
20260502214601 63 177 7.0 17.4 0.00 0.00 0.00 47 1016.8
20260502213052 63 190 7.0 17.4 0.00 0.00 0.00 47 1016.8
20260502211552 64 191 6.1 16.5 0.00 0.00 0.00 48 1016.7
20260502210104 64 180 6.1 13.0 0.00 0.00 0.00 49 1016.7
20260502204551 64 175 6.1 15.6 0.00 0.00 0.00 49 1016.7
20260502203054 65 180 4.3 9.6 0.00 0.00 0.00 48 1016.8
20260502201606 65 206 6.1 17.4 0.00 0.00 0.00 47 1016.7
20260502200051 65 169 6.1 13.9 0.00 0.00 0.00 46 1016.6
20260502194551 65 161 5.2 13.0 0.00 0.00 0.00 46 1016.4
20260502193049 66 166 3.5 13.0 0.00 0.00 0.00 45 1016.3
20260502191549 66 166 5.2 13.0 0.00 0.00 0.00 44 1016.1
20260502190048 67 168 7.8 18.2 0.00 0.00 0.00 43 1015.8
20260502184601 67 186 7.0 20.0 0.00 0.00 0.00 41 1015.9
20260502183056 67 171 7.8 17.4 0.00 0.00 0.00 41 1015.9
20260502181549 68 161 10.4 17.4 0.00 0.00 0.00 39 1015.9
20260502163049 72 208 7.0 15.6 0.00 0.00 0.00 40 1016.2
20260502161538 73 193 6.1 13.9 0.00 0.00 0.00 39 1016.3
20260502151533 75 139 8.7 19.1 0.00 0.00 0.00 38 1016.6
20260502123013 73 169 9.6 14.8 0.00 0.00 0.00 40 1018.6
20260502121512 74 183 7.8 17.4 0.00 0.00 0.00 40 1018.8
20260502114513 74 158 6.1 16.5 0.00 0.00 0.00 46 1019.1
20260502113007 73 202 10.4 19.1 0.00 0.00 0.00 44 1019.3
20260502111502 72 197 7.8 17.4 0.00 0.00 0.00 47 1019.5
20260502110002 72 147 10.4 18.2 0.00 0.00 0.00 46 1019.7
20260502104559 72 169 7.8 16.5 0.00 0.00 0.00 47 1019.9
20260502103102 72 184 8.7 20.0 0.00 0.00 0.00 46 1020.0
20260502101606 71 189 7.8 17.4 0.00 0.00 0.00 50 1020.2
20260502071513 62 146 7.0 13.0 0.00 0.00 0.00 60 1021.2
20260502070013 62 176 7.0 14.8 0.00 0.00 0.00 60 1021.3
20260502064513 61 197 7.0 12.2 0.00 0.00 0.00 59 1021.4
20260502063011 61 145 7.0 13.9 0.00 0.00 0.00 61 1021.4
20260502061507 60 182 5.2 9.6 0.00 0.00 0.00 61 1021.4
20260502060003 59 154 6.1 12.2 0.00 0.00 0.00 63 1021.3
20260502054614 58 127 4.3 12.2 0.00 0.00 0.00 63 1021.3
20260502053112 58 166 4.3 11.3 0.00 0.00 0.00 63 1021.3
20260502051552 57 178 5.2 12.2 0.00 0.00 0.00 64 1021.3
20260502050049 56 142 3.5 7.8 0.00 0.00 0.00 63 1021.2
20260502044547 56 155 2.6 7.8 0.00 0.00 0.00 62 1021.2
20260502043044 56 138 2.6 7.0 0.00 0.00 0.00 61 1021.2
20260502041543 57 190 3.5 7.0 0.00 0.00 0.00 60 1021.3
20260502040043 58 188 3.5 8.7 0.00 0.00 0.00 58 1021.3
20260502034536 58 174 4.3 13.9 0.00 0.00 0.00 57 1021.3
20260502033033 59 190 5.2 11.3 0.00 0.00 0.00 55 1021.3
20260502031532 59 181 6.1 11.3 0.00 0.00 0.00 55 1021.2
20260502030035 59 177 6.1 12.2 0.00 0.00 0.00 54 1021.2
20260502024539 59 151 7.0 14.8 0.00 0.00 0.00 52 1021.1
20260502023027 59 172 7.0 11.3 0.00 0.00 0.00 51 1021.1
20260502021525 59 161 3.5 10.4 0.00 0.00 0.00 50 1021.3
20260502020022 60 144 6.1 13.9 0.00 0.00 0.00 49 1021.3
20260502014532 60 175 5.2 13.0 0.00 0.00 0.00 50 1021.3
20260502013019 60 155 6.1 12.2 0.00 0.00 0.00 51 1021.4
20260502011516 60 174 5.2 12.2 0.00 0.00 0.00 53 1021.4
20260502010015 61 180 6.1 13.0 0.00 0.00 0.00 53 1021.5
20260502004513 61 150 5.2 9.6 0.00 0.00 0.00 54 1021.4
20260502003010 61 144 3.5 9.6 0.00 0.00 0.00 56 1021.5
20260502001509 61 121 3.5 7.8 0.00 0.00 0.00 59 1021.5